Location: Latimer
(34.1330°N, 82.5927°W)
Time: 23:02:58
(UTC+00:00)

N. Korean satellite - Pass Details

Date: 14 August 2022
Orbit: 428 x 468 km, 97.3° (Epoch: 24 September)

Event Time Altitude Azimuth Distance (km) Brightness Sun altitude
Rises 09:44:30 0° 34° (NE) 2,533 11.4 -13.5°
Reaches altitude 10° 09:47:23 10° 61° (ENE) 1,648 10.8 -13.0°
Maximum altitude 09:49:19 14° 94° (E) 1,410 9.8 -12.6°
Drops below altitude 10° 09:51:14 10° 127° (SE) 1,635 9.6 -12.3°
Sets 09:54:04 0° 153° (SSE) 2,499 10.2 -11.8°
